sat.trackr.live / text

‹ back to catalog

STARLINK-2449

NORAD 48112 · 2021-027W

PAYLOAD ACTIVE UNKNOWN

§ Identity

Operator
Country
US
Launch date
2021-04-07
Launch site
AFETR
Launch vehicle
Mass (kg)
RCS (m²)

Purposes: comms

External: N2YO · Heavens-Above · Gunter

§ Orbital elements

Epoch: 2026-09-19T18:56:38.012640Z

Period
94.01 min
Inclination
53.1613°
Eccentricity
0.0001140
Mean motion
15.31714159 rev/d
Perigee alt
469.9 km
Apogee alt
471.5 km
Semi-major
6,848.8 km
B*
6.8718e-5
RAAN
344.4759°
Arg perigee
89.3899°
Mean anomaly
270.7233°
Rev number
30,222

§ Raw data

STARLINK-24491 48112U 21027W   26262.78932885  .00001769  00000+0  68718-4 0  99922 48112  53.1613 344.4759 0001140  89.3899 270.7233 15.31714159302225

JSON: /api/v1/satellites/48112 · /tle

For live sub-satellite position, see the globe view (requires WebGL).

§ Visibility from observer

Set your observer location to see the next 7 days of passes ≥ 10°. The values pass through the URL so the page stays shareable.

No JS? Fill the form by hand. The geolocation button needs JavaScript.